User: anonymous   Login
Location: Unspecified
(0.0000°N, 0.0000°E)
Time: 19:11:19
(UTC+00:00)
Language:

STARLINK-34963 - Orbit

View from above orbital plane
View from above orbital plane
View from above satellite
View from above satellite

Ground track
Ground track

The orbit is defined by the following mean orbital elements,

1 65242U          26145.13140554 +.00000000 +00000-0 +33365-4 0 00007
2 65242  97.4492 187.9940 0001731 134.3577 225.7792 15.05646179    04
Epoch (UTC): 25 May 2026 03:09:13
Eccentricity: 0.0001731
inclination: 97.4492°
perigee height: 548 km
apogee height: 551 km
right ascension of ascending node: 187.9940°
argument of perigee: 134.3577°
revolutions per day: 15.05646179
mean anomaly at epoch: 225.7792°

The dashed part of the orbit path shows where the satellite is in the earth's shadow,  

DLR